KBTL-WX Weather Reports


time (UTC)temp
C
wind
direction
speed
KPH
gust
KPH
rain 1hr
cm
rain 24hr
cm
rain mn
cm
humidity
%
barometer
mb
20260503071513 1 184 9.7 0.0 0.00 0.00 0.00 66 980.9
20260503054513 2 202 9.7 0.0 0.00 0.00 0.00 63 982.2
20260503051513 1 198 8.0 0.0 0.00 0.00 0.00 64 982.4
20260503050034 2 201 8.0 0.0 0.00 0.00 0.00 64 982.4
20260503044513 2 198 8.0 0.0 0.00 0.00 0.00 61 982.6
20260503043032 2 205 8.0 0.0 0.00 0.00 0.00 58 982.2
20260503041513 2 211 8.0 0.0 0.00 0.00 0.00 58 982.2
20260503040038 2 215 8.0 0.0 0.00 0.00 0.00 58 982.2
20260503034513 2 219 6.4 0.0 0.00 0.00 0.00 53 983.0
20260503033033 2 223 8.0 0.0 0.00 0.00 0.00 53 983.4
20260503031513 3 222 9.7 0.0 0.00 0.00 0.00 53 983.4
20260503030037 3 222 8.0 0.0 0.00 0.00 0.00 53 983.4
20260503024513 3 229 8.0 0.0 0.00 0.00 0.00 50 983.5
20260503023032 3 229 8.0 0.0 0.00 0.00 0.00 56 984.1
20260503021514 3 237 8.0 0.0 0.00 0.00 0.00 56 984.1
20260503020036 4 243 6.4 0.0 0.00 0.00 0.00 56 984.1
20260503014513 4 252 8.0 0.0 0.00 0.00 0.00 54 983.3
20260503013031 4 258 8.0 0.0 0.00 0.00 0.00 54 983.3
20260503011513 5 256 6.4 0.0 0.00 0.00 0.00 54 983.3
20260503010034 5 264 6.4 0.0 0.00 0.00 0.00 54 983.3
20260503004513 5 276 6.4 0.0 0.00 0.00 0.00 42 983.9
20260503003026 6 284 4.8 0.0 0.00 0.00 0.00 42 984.1
20260503001514 6 290 6.4 0.0 0.00 0.00 0.00 42 984.1
20260503000033 7 289 9.7 0.0 0.00 0.00 0.00 42 984.1
20260502234513 7 291 11.3 0.0 0.00 0.00 0.00 38 983.9
20260502233025 7 286 12.9 0.0 0.00 0.00 0.00 39 984.0
20260502231513 7 286 14.5 0.0 0.00 0.00 0.00 39 984.0
20260502230037 8 289 14.5 0.0 0.00 0.00 0.00 39 984.0
20260502224513 8 290 16.1 0.0 0.00 0.00 0.00 39 984.5
20260502223031 8 288 16.1 0.0 0.00 0.00 0.00 40 985.1
20260502221513 8 287 17.7 0.0 0.00 0.00 0.00 40 985.1
20260502220034 8 288 17.7 0.0 0.00 0.00 0.00 40 985.1
20260502214513 8 292 17.7 0.0 0.00 0.00 0.00 36 985.2
20260502213031 8 285 16.1 0.0 0.00 0.00 0.00 36 984.8
20260502211513 8 283 14.5 0.0 0.00 0.00 0.00 36 984.8
20260502210037 8 284 14.5 0.0 0.00 0.00 0.00 36 984.8
20260502204513 8 285 16.1 0.0 0.00 0.00 0.00 39 985.2
20260502203031 8 291 17.7 0.0 0.00 0.00 0.00 37 985.5
20260502201513 8 292 14.5 0.0 0.00 0.00 0.00 37 985.5
20260502200035 8 288 14.5 0.0 0.00 0.00 0.00 37 985.5
20260502194513 7 287 17.7 0.0 0.00 0.00 0.00 42 985.6
20260502193025 7 290 16.1 0.0 0.00 0.00 0.00 42 985.6
20260502191513 8 293 17.7 0.0 0.00 0.00 0.00 42 985.7
20260502190036 7 294 16.1 0.0 0.00 0.00 0.00 42 985.7
20260502184513 7 298 16.1 0.0 0.00 0.00 0.00 44 985.3
20260502183032 7 298 16.1 0.0 0.00 0.00 0.00 44 985.5
20260502181512 7 298 16.1 0.0 0.00 0.00 0.00 44 985.5
20260502163032 7 287 12.9 0.0 0.00 0.00 0.00 41 985.6
20260502161514 7 290 12.9 0.0 0.00 0.00 0.00 41 985.5
20260502151514 5 312 9.7 0.0 0.00 0.00 0.00 50 985.4
20260502123031 1 310 8.0 0.0 0.00 0.00 0.00 77 985.3
20260502121513 1 315 9.7 0.0 0.00 0.00 0.00 77 985.3
20260502114513 0 306 6.4 0.0 0.00 0.00 0.00 82 984.5
20260502113033 0 291 4.8 0.0 0.00 0.00 0.00 83 985.0
20260502111513 0 274 3.2 0.0 0.00 0.00 0.00 83 985.0
20260502110038 0 270 4.8 0.0 0.00 0.00 0.00 83 985.0
20260502104513 0 275 3.2 0.0 0.00 0.00 0.00 83 984.7
20260502103031 0 288 3.2 0.0 0.00 0.00 0.00 85 985.2
20260502101513 0 279 3.2 0.0 0.00 0.00 0.00 85 985.2
20260502091513 0 279 6.4 0.0 0.00 0.00 0.00 83 984.9